La Grande, OR

9:57 AM PDT on October 18, 2017 (GMT -0700)
La Grande-Union County

Weather History for KLGD - October, 2012

Change the Weather History Date:

Tuesday, October 16, 2012

  Actual Average Record
Temperature  
Mean Temperature 53 °F -  
Max Temperature 62 °F 59 °F 82 °F (1991)
Min Temperature 42 °F 33 °F 15 °F (1999)
Degree Days  
Heating Degree Days 12    
Growing Degree Days 3 (Base 50)    
Moisture  
Dew Point 36 °F    
Average Humidity 52    
Maximum Humidity 72    
Minimum Humidity 33    
Precipitation  
Precipitation 0.37 in - - ()
Sea Level Pressure  
Sea Level Pressure 29.95 in    
Wind  
Wind Speed 13 mph (WNW)    
Max Wind Speed 29 mph    
Max Gust Speed 36 mph    
Visibility 10 miles    
Events Thunderstorm    
Averages and records for this station are not official NWS values.
T = Trace of Precipitation, MM = Missing Value Source: NWS Daily Summary

Daily Weather History Graph

Daily Weather History Graph

Search for Another Location

Airport or City:

Trip Planner

Search our weather history database for the weather conditions in past years. The results will help you decide how hot, cold, wet, or windy it might be!

Date:

Astronomy

Oct. 16, 2012 Rise Set
Actual Time 7:10 AM PDT 6:04 PM PDT
Civil Twilight 6:40 AM PDT 6:33 PM PDT
Nautical Twilight 6:06 AM PDT 7:07 PM PDT
Astronomical Twilight 5:31 AM PDT 7:42 PM PDT
Moon 8:45 AM PDT (10/16) 6:45 PM PDT (10/16)
Length of Visible Light 11h 53m
Length of Day
10h 53m
New Moon, 2% of the Moon is Illuminated
Oct 16
New Moon
Oct 21
First Quarter
Oct 29
Full
Nov 6
Last Quarter
Nov 13
New

Hourly Weather History & Observations

Time (PDT) Temp. Windchill Dew Point Humidity Pressure Visibility Wind Dir Wind Speed Gust Speed Precip Events Conditions
12:15 AM 59.0 °F - 50.0 °F 72% 29.76 in 10.0 mi SE 3.5 mph - N/A   Overcast
12:35 AM 59.0 °F - 50.0 °F 72% 29.75 in 10.0 mi SW 5.8 mph - N/A   Overcast
12:55 AM 59.0 °F - 50.0 °F 72% 29.74 in 10.0 mi South 8.1 mph - N/A   Overcast
1:15 AM 59.0 °F - 50.0 °F 72% 29.74 in 10.0 mi South 12.7 mph - N/A   Overcast
1:35 AM 59.0 °F - 48.2 °F 67% 29.72 in 10.0 mi South 9.2 mph - N/A   Overcast
1:55 AM 59.0 °F - 48.2 °F 67% 29.71 in 10.0 mi South 9.2 mph - N/A   Overcast
2:15 AM 59.0 °F - 50.0 °F 72% 29.70 in 10.0 mi South 9.2 mph 16.1 mph N/A   Overcast
2:35 AM 59.0 °F - 48.2 °F 67% 29.68 in 10.0 mi South 11.5 mph - N/A   Mostly Cloudy
2:55 AM 59.0 °F - 48.2 °F 67% 29.68 in 10.0 mi South 9.2 mph - N/A   Mostly Cloudy
3:15 AM 59.0 °F - 48.2 °F 67% 29.67 in 10.0 mi South 17.3 mph - N/A   Scattered Clouds
3:35 AM 59.0 °F - 48.2 °F 67% 29.66 in 10.0 mi South 12.7 mph 19.6 mph N/A   Mostly Cloudy
3:55 AM 59.0 °F - 48.2 °F 67% 29.66 in 10.0 mi South 13.8 mph - N/A   Overcast
4:35 AM 62.6 °F - 50.0 °F 63% 29.66 in 10.0 mi WNW 10.4 mph 16.1 mph N/A   Overcast
5:15 AM 60.8 °F - 50.0 °F 68% 29.67 in 10.0 mi WSW 15.0 mph 19.6 mph N/A   Overcast
5:35 AM 60.8 °F - 48.2 °F 63% 29.67 in 10.0 mi West 13.8 mph 21.9 mph N/A   Scattered Clouds
5:55 AM 55.4 °F - 44.6 °F 67% 29.71 in 10.0 mi WNW 18.4 mph 34.5 mph 0.19 in Thunderstorm Mostly Cloudy
6:15 AM 55.4 °F - 46.4 °F 72% 29.73 in 10.0 mi WNW 12.7 mph 19.6 mph N/A   Mostly Cloudy
6:35 AM 55.4 °F - 46.4 °F 72% 29.74 in 10.0 mi West 16.1 mph 20.7 mph N/A   Partly Cloudy
6:55 AM 57.2 °F - 46.4 °F 67% 29.76 in 10.0 mi West 15.0 mph 23.0 mph N/A   Partly Cloudy
7:15 AM 57.2 °F - 44.6 °F 63% 29.78 in 10.0 mi NW 15.0 mph 26.5 mph N/A   Mostly Cloudy
7:35 AM 55.4 °F - 41.0 °F 58% 29.81 in 10.0 mi NW 16.1 mph 25.3 mph N/A   Overcast
7:55 AM 53.6 °F - 39.2 °F 58% 29.83 in 10.0 mi WNW 21.9 mph 31.1 mph N/A   Mostly Cloudy
8:15 AM 53.6 °F - 39.2 °F 58% 29.84 in 10.0 mi West 18.4 mph 29.9 mph N/A   Scattered Clouds
8:35 AM 53.6 °F - 39.2 °F 58% 29.87 in 10.0 mi NW 27.6 mph 35.7 mph N/A   Mostly Cloudy
8:55 AM 51.8 °F - 37.4 °F 58% 29.89 in 10.0 mi WNW 24.2 mph 29.9 mph N/A   Mostly Cloudy
9:15 AM 51.8 °F - 37.4 °F 58% 29.89 in 10.0 mi WNW 21.9 mph 33.4 mph N/A   Scattered Clouds
9:35 AM 53.6 °F - 37.4 °F 54% 29.89 in 10.0 mi WNW 25.3 mph 31.1 mph N/A   Scattered Clouds
9:55 AM 53.6 °F - 37.4 °F 54% 29.90 in 10.0 mi WNW 26.5 mph 33.4 mph N/A   Scattered Clouds
10:15 AM 53.6 °F - 35.6 °F 51% 29.91 in 10.0 mi WNW 24.2 mph 35.7 mph N/A   Partly Cloudy
10:35 AM 55.4 °F - 37.4 °F 51% 29.91 in 10.0 mi WNW 21.9 mph 31.1 mph N/A   Clear
10:55 AM 55.4 °F - 37.4 °F 51% 29.94 in 10.0 mi NW 20.7 mph 26.5 mph N/A   Scattered Clouds
11:15 AM 55.4 °F - 33.8 °F 44% 29.95 in 10.0 mi NW 16.1 mph - N/A   Scattered Clouds
11:35 AM 55.4 °F - 33.8 °F 44% 29.96 in 10.0 mi NW 25.3 mph 33.4 mph N/A   Scattered Clouds
11:55 AM 55.4 °F - 33.8 °F 44% 29.98 in 10.0 mi NW 17.3 mph 29.9 mph N/A   Scattered Clouds
12:15 PM 55.4 °F - 33.8 °F 44% 29.99 in 10.0 mi WNW 24.2 mph 29.9 mph N/A   Mostly Cloudy
12:35 PM 57.2 °F - 30.2 °F 36% 29.99 in 10.0 mi NW 28.8 mph 34.5 mph N/A   Mostly Cloudy
1:15 PM 55.4 °F - 28.4 °F 36% 30.02 in 10.0 mi NW 23.0 mph 33.4 mph N/A   Mostly Cloudy
1:35 PM 55.4 °F - 26.6 °F 33% 30.02 in 10.0 mi NNW 24.2 mph 29.9 mph N/A   Scattered Clouds
1:55 PM 55.4 °F - 26.6 °F 33% 30.02 in 10.0 mi NW 26.5 mph 32.2 mph N/A   Clear
2:15 PM 55.4 °F - 26.6 °F 33% 30.02 in 10.0 mi NW 25.3 mph 32.2 mph N/A   Clear
2:35 PM 55.4 °F - 26.6 °F 33% 30.03 in 10.0 mi NW 20.7 mph 28.8 mph N/A   Clear
2:55 PM 55.4 °F - 28.4 °F 36% 30.04 in 10.0 mi NW 21.9 mph 26.5 mph 0.02 in   Clear
3:15 PM 55.4 °F - 28.4 °F 36% 30.05 in 10.0 mi NNW 18.4 mph 23.0 mph 0.16 in   Partly Cloudy
3:35 PM 55.4 °F - 26.6 °F 33% 30.05 in 10.0 mi WNW 19.6 mph 26.5 mph 0.16 in   Partly Cloudy
3:55 PM 55.4 °F - 26.6 °F 33% 30.05 in 10.0 mi NW 18.4 mph 24.2 mph 0.16 in   Partly Cloudy
4:15 PM 55.4 °F - 26.6 °F 33% 30.06 in 10.0 mi NW 17.3 mph 28.8 mph N/A   Clear
4:35 PM 55.4 °F - 26.6 °F 33% 30.07 in 10.0 mi WNW 19.6 mph - N/A   Scattered Clouds
4:55 PM 53.6 °F - 28.4 °F 38% 30.07 in 10.0 mi NNW 16.1 mph 21.9 mph N/A   Partly Cloudy
5:15 PM 53.6 °F - 28.4 °F 38% 30.08 in 10.0 mi NW 16.1 mph - N/A   Scattered Clouds
5:35 PM 51.8 °F - 26.6 °F 38% 30.08 in 10.0 mi WNW 17.3 mph 25.3 mph N/A   Partly Cloudy
5:55 PM 51.8 °F - 26.6 °F 38% 30.08 in 10.0 mi WNW 16.1 mph 20.7 mph N/A   Clear
6:15 PM 50.0 °F - 26.6 °F 40% 30.09 in 10.0 mi WNW 16.1 mph 24.2 mph N/A   Clear
6:35 PM 48.2 °F - 26.6 °F 43% 30.10 in 10.0 mi WNW 16.1 mph - N/A   Clear
6:55 PM 48.2 °F - 26.6 °F 43% 30.11 in 10.0 mi WNW 12.7 mph 19.6 mph N/A   Clear
7:15 PM 48.2 °F - 26.6 °F 43% 30.13 in 10.0 mi NE 5.8 mph - N/A   Clear
7:35 PM 46.4 °F 43.5 °F 28.4 °F 50% 30.13 in 10.0 mi NNE 5.8 mph - N/A   Clear
7:55 PM 46.4 °F 42.4 °F 28.4 °F 50% 30.13 in 10.0 mi NNW 8.1 mph - N/A   Clear
8:15 PM 46.4 °F 42.9 °F 28.4 °F 50% 30.14 in 10.0 mi NE 6.9 mph - N/A   Clear
8:35 PM 48.2 °F - 28.4 °F 46% 30.14 in 10.0 mi North 4.6 mph - N/A   Mostly Cloudy
8:55 PM 44.6 °F 41.4 °F 28.4 °F 53% 30.15 in 10.0 mi NNW 5.8 mph - N/A   Scattered Clouds
9:15 PM 48.2 °F - 28.4 °F 46% 30.17 in 10.0 mi West 4.6 mph - N/A   Mostly Cloudy
9:35 PM 46.4 °F 44.3 °F 28.4 °F 50% 30.17 in 10.0 mi WNW 4.6 mph - N/A   Mostly Cloudy
9:55 PM 46.4 °F 44.3 °F 28.4 °F 50% 30.17 in 10.0 mi West 4.6 mph - N/A   Mostly Cloudy
10:15 PM 46.4 °F 42.9 °F 28.4 °F 50% 30.18 in 10.0 mi North 6.9 mph 16.1 mph N/A   Overcast
10:35 PM 46.4 °F 44.3 °F 28.4 °F 50% 30.18 in 10.0 mi NW 4.6 mph - N/A   Mostly Cloudy
10:55 PM 46.4 °F 42.9 °F 28.4 °F 50% 30.18 in 10.0 mi North 6.9 mph - N/A   Scattered Clouds
11:15 PM 44.6 °F 41.4 °F 28.4 °F 53% 30.18 in 10.0 mi NNW 5.8 mph - N/A   Mostly Cloudy
11:35 PM 44.6 °F 39.7 °F 28.4 °F 53% 30.19 in 10.0 mi NW 9.2 mph - N/A   Partly Cloudy
11:55 PM 42.8 °F 37.0 °F 28.4 °F 57% 30.19 in 10.0 mi NW 10.4 mph - N/A   Clear